Weather History for KLWM - December, 2012

Change the Weather History Date:

Saturday, December 22, 2012

  Actual Average Record
Temperature  
Mean Temperature 34 °F -  
Max Temperature 39 °F 38 °F 61 °F (1949)
Min Temperature 28 °F 20 °F -4 °F (1942)
Degree Days  
Heating Degree Days 32    
Moisture  
Dew Point 22 °F    
Average Humidity 61    
Maximum Humidity 76    
Minimum Humidity 46    
Precipitation  
Precipitation 0.00 in - - ()
Sea Level Pressure  
Sea Level Pressure 29.38 in    
Wind  
Wind Speed 12 mph (WSW)    
Max Wind Speed 21 mph    
Max Gust Speed 32 mph    
Visibility 10 miles    
Events Rain    
Averages and records for this station are not official NWS values.
T = Trace of Precipitation, MM = Missing Value Source: NWS Daily Summary

Daily Weather History Graph

Daily Weather History Graph

Search for Another Location

Airport or City:

Trip Planner

Search our weather history database for the weather conditions in past years. The results will help you decide how hot, cold, wet, or windy it might be!

Date:

Astronomy

Dec. 22, 2012 Rise Set
Actual Time 7:12 AM EST 4:14 PM EST
Civil Twilight 6:40 AM EST 4:46 PM EST
Nautical Twilight 6:04 AM EST 5:22 PM EST
Astronomical Twilight 5:29 AM EST 5:56 PM EST
Moon 12:34 PM EST (12/22) 1:50 AM EST (12/22)
Length of Visible Light 10h 06m
Length of Day
9h 02m
Waxing Gibbous, 73% of the Moon is Illuminated
Dec 22
Waxing Gibbous
Dec 28
Full
Jan 4
Last Quarter
Jan 11
New
Jan 18
First Quarter

Hourly Weather History & Observations

Time (EST) Temp. Windchill Dew Point Humidity Pressure Visibility Wind Dir Wind Speed Gust Speed Precip Events Conditions
12:08 AM 39.2 °F 31.6 °F 32.0 °F 75% 29.23 in 10.0 mi SW 12.7 mph - N/A   Overcast
12:18 AM 39.2 °F 31.6 °F 32.0 °F 75% 29.23 in 10.0 mi SW 12.7 mph - N/A   Overcast
12:54 AM 39.0 °F 32.8 °F 30.9 °F 73% 29.23 in 10.0 mi SW 9.2 mph - N/A   Overcast
1:54 AM 37.0 °F 30.4 °F 28.9 °F 73% 29.24 in 10.0 mi SW 9.2 mph - N/A   Mostly Cloudy
2:54 AM 36.0 °F 28.5 °F 28.0 °F 73% 29.24 in 10.0 mi SW 10.4 mph - N/A   Partly Cloudy
3:54 AM 36.0 °F 30.3 °F 28.0 °F 73% 29.25 in 10.0 mi SSW 6.9 mph - N/A   Partly Cloudy
4:54 AM 35.1 °F 31.0 °F 27.0 °F 72% 29.26 in 10.0 mi SSW 4.6 mph - N/A   Scattered Clouds
5:54 AM 35.1 °F 30.1 °F 28.0 °F 76% 29.27 in 10.0 mi SSW 5.8 mph - N/A   Mostly Cloudy
6:54 AM 35.1 °F 30.1 °F 28.0 °F 76% 29.28 in 10.0 mi SSW 5.8 mph - N/A   Overcast
7:54 AM 36.0 °F 30.3 °F 28.0 °F 73% 29.31 in 10.0 mi SSW 6.9 mph - N/A   Overcast
8:54 AM 39.0 °F 32.3 °F 28.9 °F 67% 29.33 in 10.0 mi SW 10.4 mph - N/A   Overcast
9:26 AM 37.4 °F 30.8 °F 30.2 °F 75% 29.34 in 9.0 mi West 9.2 mph - 0.00 in Rain Light Rain
9:37 AM 37.4 °F 26.9 °F 24.8 °F 60% 29.33 in 10.0 mi West 20.7 mph 27.6 mph 0.00 in   Overcast
9:54 AM 37.0 °F 27.7 °F 23.0 °F 57% 29.35 in 10.0 mi West 16.1 mph 28.8 mph 0.00 in   Overcast
10:54 AM 37.9 °F 30.0 °F 21.9 °F 53% 29.34 in 10.0 mi West 12.7 mph 21.9 mph N/A   Overcast
11:54 AM 37.9 °F 30.0 °F 23.0 °F 55% 29.34 in 10.0 mi West 12.7 mph 24.2 mph N/A   Overcast
12:54 PM 37.0 °F 27.0 °F 18.0 °F 46% 29.35 in 10.0 mi West 18.4 mph 32.2 mph N/A   Overcast
1:54 PM 37.0 °F 28.1 °F 19.0 °F 48% 29.37 in 10.0 mi West 15.0 mph 21.9 mph N/A   Overcast
2:54 PM 35.1 °F 24.5 °F 16.0 °F 46% 29.40 in 10.0 mi West 18.4 mph 25.3 mph N/A   Overcast
3:54 PM 34.0 °F 25.5 °F 15.1 °F 46% 29.44 in 10.0 mi WNW 11.5 mph 23.0 mph N/A   Overcast
4:54 PM 32.0 °F 21.2 °F 14.0 °F 48% 29.48 in 10.0 mi WNW 16.1 mph 25.3 mph N/A   Scattered Clouds
5:54 PM 30.9 °F 20.7 °F 12.0 °F 46% 29.52 in 10.0 mi WNW 13.8 mph 25.3 mph N/A   Mostly Cloudy
6:54 PM 30.0 °F 18.7 °F 14.0 °F 51% 29.55 in 10.0 mi WNW 16.1 mph 21.9 mph N/A   Mostly Cloudy
7:54 PM 30.0 °F 20.0 °F 12.0 °F 47% 29.57 in 10.0 mi WNW 12.7 mph 31.1 mph N/A   Mostly Cloudy
8:54 PM 28.9 °F 19.2 °F 14.0 °F 54% 29.60 in 10.0 mi West 11.5 mph 23.0 mph N/A   Partly Cloudy
9:54 PM 28.9 °F 18.2 °F 15.1 °F 56% 29.61 in 10.0 mi West 13.8 mph 24.2 mph N/A   Partly Cloudy
10:54 PM 28.9 °F 17.7 °F 15.1 °F 56% 29.62 in 10.0 mi West 15.0 mph 21.9 mph N/A   Clear
11:54 PM 30.0 °F 19.5 °F 15.1 °F 54% 29.63 in 10.0 mi West 13.8 mph 26.5 mph N/A   Clear